START_TIME,STEP,MOV.,M6,t_acc.,M7,t_acc.,M19,t_acc.,H36,t_acc.
1979-07-06 12:00:27.780 ,0,0,5.,12.0,0.,12.0,0.,12.0,1.,12.0
1979-07-06 12:00:39.780 ,0,0,2.,12.0,0.,12.0,0.,12.0,2.,12.0
1979-07-06 12:00:51.780 ,1,1,5.,12.0,0.,12.0,0.,12.0,0.,12.0
1979-07-06 12:01:03.780 ,1,1,0.,12.0,0.,12.0,0.,12.0,0.,12.0
1979-07-06 12:01:15.780 ,1,0,2.,12.0,0.,12.0,0.,12.0,0.,12.0
1979-07-06 12:01:27.780 ,1,0,1.,12.0,0.,12.0,0.,12.0,0.,12.0
1979-07-06 12:01:39.780 ,2,1,2.,12.0,0.,12.0,0.,12.0,0.,12.0
1979-07-06 12:01:51.780 ,2,1,1.,12.0,0.,12.0,0.,12.0,1.,12.0
1979-07-06 12:02:03.780 ,2,0,3.,12.0,0.,12.0,0.,12.0,0.,12.0
1979-07-06 12:02:15.780 ,2,0,6.,12.0,0.,12.0,0.,12.0,1.,12.0
1979-07-06 12:02:27.780 ,3,1,3.,12.0,0.,12.0,0.,12.0,1.,12.0
1979-07-06 12:02:39.780 ,3,1,2.,12.0,0.,12.0,0.,12.0,0.,12.0
1979-07-06 12:02:51.780 ,3,0,4.,12.0,0.,12.0,0.,12.0,3.,12.0
1979-07-06 12:03:03.780 ,3,0,4.,12.0,0.,12.0,0.,12.0,3.,12.0
1979-07-06 12:03:15.780 ,4,1,6.,12.0,0.,12.0,0.,12.0,2.,12.0
1979-07-06 12:03:27.780 ,4,1,8.,12.0,0.,12.0,0.,12.0,1.,12.0
1979-07-06 12:03:39.780 ,4,0,14.,12.0,0.,12.0,0.,12.0,4.,12.0
1979-07-06 12:03:51.780 ,4,0,6.,12.0,0.,12.0,0.,12.0,6.,12.0
1979-07-06 12:04:03.780 ,5,1,8.,12.0,0.,12.0,0.,12.0,3.,12.0
1979-07-06 12:04:15.780 ,5,1,13.,12.0,0.,12.0,0.,12.0,3.,12.0
1979-07-06 12:04:27.780 ,5,0,12.,12.0,0.,12.0,0.,12.0,11.,12.0
1979-07-06 12:04:39.780 ,5,0,10.,12.0,0.,12.0,0.,12.0,4.,12.0
1979-07-06 12:04:51.780 ,6,1,12.,12.0,0.,12.0,0.,12.0,2.,12.0
1979-07-06 12:05:03.780 ,6,1,10.,12.0,0.,12.0,0.,12.0,2.,12.0
1979-07-06 12:05:15.780 ,6,0,6.,12.0,0.,12.0,0.,12.0,2.,12.0
1979-07-06 12:05:27.780 ,6,0,4.,12.0,0.,12.0,0.,12.0,6.,12.0
1979-07-06 12:05:39.780 ,7,1,6.,12.0,0.,12.0,0.,12.0,2.,12.0
1979-07-06 12:05:51.780 ,7,1,1.,12.0,0.,12.0,0.,12.0,0.,12.0
1979-07-06 12:06:03.780 ,7,0,0.,12.0,0.,12.0,0.,12.0,0.,12.0
1979-07-06 12:06:15.780 ,7,0,0.,12.0,0.,12.0,0.,12.0,0.,12.0
1979-07-06 12:06:27.780 ,7,1,0.,12.0,0.,12.0,0.,12.0,0.,12.0
1979-07-06 12:06:39.780 ,7,1,0.,12.0,0.,12.0,0.,12.0,0.,12.0
1979-07-06 12:06:51.780 ,7,0,0.,12.0,0.,12.0,0.,12.0,0.,12.0
1979-07-06 12:07:03.780 ,7,0,0.,12.0,0.,12.0,0.,12.0,0.,12.0
1979-07-06 12:07:15.780 ,6,1,0.,12.0,0.,12.0,0.,12.0,0.,12.0
1979-07-06 12:07:27.780 ,6,1,3.,12.0,0.,12.0,0.,12.0,1.,12.0
1979-07-06 12:07:39.780 ,6,0,3.,12.0,0.,12.0,0.,12.0,4.,12.0
1979-07-06 12:07:51.780 ,6,0,4.,12.0,0.,12.0,0.,12.0,2.,12.0
1979-07-06 12:08:03.780 ,5,1,2.,12.0,0.,12.0,0.,12.0,0.,12.0
1979-07-06 12:08:15.780 ,5,1,7.,12.0,0.,12.0,0.,12.0,3.,12.0
1979-07-06 12:08:27.780 ,5,0,17.,12.0,0.,12.0,0.,12.0,6.,12.0
1979-07-06 12:08:39.780 ,5,0,10.,12.0,0.,12.0,0.,12.0,6.,12.0
1979-07-06 12:08:51.780 ,4,1,9.,12.0,0.,12.0,0.,12.0,3.,12.0
1979-07-06 12:09:03.780 ,4,1,9.,12.0,0.,12.0,0.,12.0,6.,12.0
1979-07-06 12:09:15.780 ,4,0,9.,12.0,0.,12.0,0.,12.0,4.,12.0
1979-07-06 12:09:27.780 ,4,0,7.,12.0,0.,12.0,0.,12.0,3.,12.0
1979-07-06 12:09:39.780 ,3,1,9.,12.0,0.,12.0,0.,12.0,3.,12.0
1979-07-06 12:09:51.780 ,3,1,7.,12.0,0.,12.0,0.,12.0,1.,12.0
1979-07-06 12:10:03.780 ,3,0,5.,12.0,0.,12.0,0.,12.0,2.,12.0
1979-07-06 12:10:15.780 ,3,0,7.,12.0,0.,12.0,0.,12.0,0.,12.0
1979-07-06 12:10:27.780 ,2,1,3.,12.0,0.,12.0,0.,12.0,0.,12.0
1979-07-06 12:10:39.780 ,2,1,1.,12.0,0.,12.0,0.,12.0,0.,12.0
1979-07-06 12:10:51.780 ,2,0,2.,12.0,0.,12.0,0.,12.0,1.,12.0
1979-07-06 12:11:03.780 ,2,0,2.,12.0,0.,12.0,0.,12.0,0.,12.0
1979-07-06 12:11:15.780 ,1,1,1.,12.0,0.,12.0,0.,12.0,0.,12.0
1979-07-06 12:11:27.780 ,1,1,0.,12.0,0.,12.0,0.,12.0,1.,12.0
1979-07-06 12:11:39.780 ,1,0,1.,12.0,0.,12.0,0.,12.0,1.,12.0
1979-07-06 12:11:51.780 ,1,0,1.,12.0,0.,12.0,0.,12.0,0.,12.0
1979-07-06 12:12:03.780 ,0,1,2.,12.0,0.,12.0,0.,12.0,1.,12.0
1979-07-06 12:12:15.780 ,0,1,4.,12.0,0.,12.0,0.,12.0,1.,12.0
1979-07-06 12:12:27.780 ,0,0,4.,12.0,0.,12.0,0.,12.0,1.,12.0
1979-07-06 12:12:39.780 ,0,0,1.,12.0,0.,12.0,0.,12.0,2.,12.0
1979-07-06 12:12:51.770 ,0,1,2.,12.0,0.,12.0,0.,12.0,0.,12.0
1979-07-06 12:13:03.780 ,0,1,1.,12.0,0.,12.0,0.,12.0,0.,12.0
1979-07-06 12:13:15.770 ,0,0,2.,12.0,0.,12.0,0.,12.0,2.,12.0
1979-07-06 12:13:27.780 ,0,0,2.,12.0,0.,12.0,0.,12.0,3.,12.0
1979-07-06 12:13:39.770 ,1,1,3.,12.0,0.,12.0,0.,12.0,0.,12.0
1979-07-06 12:13:51.780 ,1,1,5.,12.0,0.,12.0,0.,12.0,1.,12.0
1979-07-06 12:14:03.770 ,1,0,2.,12.0,0.,12.0,0.,12.0,2.,12.0
1979-07-06 12:14:15.770 ,1,0,2.,12.0,0.,12.0,0.,12.0,0.,12.0
1979-07-06 12:14:27.770 ,2,1,1.,12.0,0.,12.0,0.,12.0,0.,12.0
1979-07-06 12:14:39.780 ,2,1,3.,12.0,0.,12.0,0.,12.0,1.,12.0
1979-07-06 12:14:51.770 ,2,0,1.,12.0,0.,12.0,0.,12.0,2.,12.0
1979-07-06 12:15:03.780 ,2,0,2.,12.0,0.,12.0,0.,12.0,1.,12.0
1979-07-06 12:15:15.770 ,3,1,0.,12.0,0.,12.0,0.,12.0,0.,12.0
1979-07-06 12:15:27.780 ,3,1,7.,12.0,0.,12.0,0.,12.0,1.,12.0
1979-07-06 12:15:39.770 ,3,0,10.,12.0,0.,12.0,0.,12.0,2.,12.0
1979-07-06 12:15:51.780 ,3,0,11.,12.0,0.,12.0,0.,12.0,0.,12.0
1979-07-06 12:16:03.770 ,4,1,7.,12.0,0.,12.0,0.,12.0,2.,12.0
1979-07-06 12:16:15.770 ,4,1,15.,12.0,0.,12.0,0.,12.0,4.,12.0
1979-07-06 12:16:27.770 ,4,0,20.,12.0,0.,12.0,0.,12.0,9.,12.0
1979-07-06 12:16:39.780 ,4,0,20.,12.0,0.,12.0,0.,12.0,10.,12.0
1979-07-06 12:16:51.770 ,5,1,19.,12.0,0.,12.0,0.,12.0,5.,12.0
1979-07-06 12:17:03.780 ,5,1,17.,12.0,0.,12.0,0.,12.0,11.,12.0
1979-07-06 12:17:15.780 ,5,0,23.,12.0,0.,12.0,0.,12.0,7.,12.0
1979-07-06 12:17:27.780 ,5,0,20.,12.0,0.,12.0,0.,12.0,4.,12.0
1979-07-06 12:17:39.780 ,6,1,11.,12.0,0.,12.0,0.,12.0,10.,12.0
1979-07-06 12:17:51.780 ,6,1,17.,12.0,0.,12.0,0.,12.0,8.,12.0
1979-07-06 12:18:03.780 ,6,0,11.,12.0,0.,12.0,0.,12.0,11.,12.0
1979-07-06 12:18:15.780 ,6,0,18.,12.0,0.,12.0,0.,12.0,12.,12.0
1979-07-06 12:18:27.780 ,7,0,18.,12.0,0.,12.0,0.,12.0,8.,12.0
1979-07-06 12:18:39.780 ,7,0,0.,12.0,0.,12.0,0.,12.0,2.,12.0
1979-07-06 12:18:51.780 ,7,0,0.,12.0,0.,12.0,0.,12.0,0.,12.0
1979-07-06 12:19:03.780 ,7,0,0.,12.0,0.,12.0,0.,12.0,0.,12.0
1979-07-06 12:19:15.780 ,4,1,8.,12.0,0.,12.0,0.,12.0,2.,12.0
1979-07-06 12:19:27.780 ,4,1,28.,12.0,0.,12.0,0.,12.0,3.,12.0
1979-07-06 12:19:39.780 ,0,1,6.,12.0,0.,12.0,0.,12.0,1.,12.0
1979-07-06 12:19:51.780 ,0,1,1.,12.0,0.,12.0,0.,12.0,0.,12.0
1979-07-06 12:20:03.780 ,3,1,1.,12.0,0.,12.0,0.,12.0,1.,12.0
1979-07-06 12:20:15.780 ,3,1,4.,12.0,0.,12.0,0.,12.0,1.,12.0
1979-07-06 12:20:27.780 ,7,1,18.,12.0,0.,12.0,0.,12.0,10.,12.0
1979-07-06 12:20:39.780 ,7,1,15.,12.0,0.,12.0,0.,12.0,6.,12.0
1979-07-06 12:20:51.780 ,4,1,8.,12.0,0.,12.0,0.,12.0,3.,12.0
1979-07-06 12:21:03.780 ,4,1,19.,12.0,0.,12.0,0.,12.0,8.,12.0
1979-07-06 12:21:15.780 ,0,1,11.,12.0,0.,12.0,0.,12.0,1.,12.0
1979-07-06 12:21:27.780 ,0,1,2.,12.0,0.,12.0,0.,12.0,0.,12.0
1979-07-06 12:21:39.780 ,3,1,1.,12.0,0.,12.0,0.,12.0,1.,12.0
1979-07-06 12:21:51.780 ,3,1,3.,12.0,0.,12.0,0.,12.0,2.,12.0
1979-07-06 12:22:03.780 ,7,1,9.,12.0,0.,12.0,0.,12.0,13.,12.0
1979-07-06 12:22:15.780 ,7,1,16.,12.0,0.,12.0,0.,12.0,4.,12.0
1979-07-06 12:22:27.780 ,4,1,10.,12.0,0.,12.0,0.,12.0,4.,12.0
1979-07-06 12:22:39.780 ,4,1,18.,12.0,0.,12.0,0.,12.0,11.,12.0
1979-07-06 12:22:51.780 ,0,1,5.,12.0,0.,12.0,0.,12.0,0.,12.0
1979-07-06 12:23:03.780 ,0,1,2.,12.0,0.,12.0,0.,12.0,0.,12.0
1979-07-06 12:23:15.780 ,3,1,1.,12.0,0.,12.0,0.,12.0,0.,12.0
1979-07-06 12:23:27.780 ,3,1,5.,12.0,0.,12.0,0.,12.0,0.,12.0
1979-07-06 12:23:39.780 ,7,1,21.,12.0,0.,12.0,0.,12.0,10.,12.0
1979-07-06 12:23:51.780 ,7,1,4.,12.0,0.,12.0,0.,12.0,5.,12.0
1979-07-06 12:24:03.780 ,4,1,2.,12.0,0.,12.0,0.,12.0,2.,12.0
1979-07-06 12:24:15.780 ,4,1,11.,12.0,0.,12.0,0.,12.0,9.,12.0
1979-07-06 12:24:27.780 ,0,1,6.,12.0,0.,12.0,0.,12.0,4.,12.0
1979-07-06 12:24:39.780 ,0,1,2.,12.0,0.,12.0,0.,12.0,1.,12.0
1979-07-06 12:24:51.780 ,3,1,1.,12.0,0.,12.0,0.,12.0,0.,12.0
1979-07-06 12:25:03.780 ,3,1,2.,12.0,0.,12.0,0.,12.0,1.,12.0
1979-07-06 12:25:15.780 ,7,1,19.,12.0,0.,12.0,0.,12.0,5.,12.0
1979-07-06 12:25:27.780 ,7,1,9.,12.0,0.,12.0,0.,12.0,1.,12.0
1979-07-06 12:25:39.780 ,4,1,4.,12.0,0.,12.0,0.,12.0,2.,12.0
1979-07-06 12:25:51.780 ,4,1,12.,12.0,0.,12.0,0.,12.0,6.,12.0
1979-07-06 12:26:03.780 ,0,1,8.,12.0,0.,12.0,0.,12.0,2.,12.0
1979-07-06 12:26:15.780 ,0,1,3.,12.0,0.,12.0,0.,12.0,2.,12.0
1979-07-06 12:26:27.780 ,3,1,3.,12.0,0.,12.0,0.,12.0,0.,12.0
1979-07-06 12:26:39.780 ,3,1,5.,12.0,0.,12.0,0.,12.0,1.,12.0
1979-07-06 12:26:51.780 ,7,1,20.,12.0,0.,12.0,0.,12.0,4.,12.0
1979-07-06 12:27:03.780 ,7,1,10.,12.0,0.,12.0,0.,12.0,5.,12.0
1979-07-06 12:27:15.780 ,4,1,3.,12.0,0.,12.0,0.,12.0,2.,12.0
1979-07-06 12:27:27.780 ,4,1,12.,12.0,0.,12.0,0.,12.0,10.,12.0
1979-07-06 12:27:39.780 ,0,1,6.,12.0,0.,12.0,0.,12.0,5.,12.0
1979-07-06 12:27:51.780 ,0,1,1.,12.0,0.,12.0,0.,12.0,1.,12.0
1979-07-06 12:28:03.780 ,3,1,1.,12.0,0.,12.0,0.,12.0,0.,12.0
1979-07-06 12:28:15.780 ,3,1,4.,12.0,0.,12.0,0.,12.0,1.,12.0
1979-07-06 12:28:27.780 ,7,1,17.,12.0,0.,12.0,0.,12.0,7.,12.0
1979-07-06 12:28:39.780 ,7,1,6.,12.0,0.,12.0,0.,12.0,6.,12.0
1979-07-06 12:28:51.780 ,4,1,2.,12.0,0.,12.0,0.,12.0,1.,12.0
1979-07-06 12:29:03.780 ,4,1,16.,12.0,0.,12.0,0.,12.0,11.,12.0
1979-07-06 12:29:15.780 ,0,1,9.,12.0,0.,12.0,0.,12.0,4.,12.0
1979-07-06 12:29:27.780 ,0,1,1.,12.0,0.,12.0,0.,12.0,2.,12.0
1979-07-06 12:29:39.780 ,0,0,0.,12.0,0.,12.0,0.,12.0,0.,12.0
1979-07-06 12:29:51.780 ,0,0,10.,12.0,0.,12.0,0.,12.0,2.,12.0
1979-07-06 12:30:03.780 ,0,0,21.,12.0,0.,12.0,0.,12.0,9.,12.0
1979-07-06 12:30:15.780 ,0,0,7.,12.0,0.,12.0,0.,12.0,1.,12.0
1979-07-06 12:30:27.780 ,5,1,6.,12.0,0.,12.0,0.,12.0,2.,12.0
1979-07-06 12:30:39.780 ,5,1,20.,12.0,0.,12.0,0.,12.0,6.,12.0
1979-07-06 12:30:51.780 ,5,0,30.,12.0,0.,12.0,0.,12.0,11.,12.0
1979-07-06 12:31:03.780 ,5,0,21.,12.0,0.,12.0,0.,12.0,10.,12.0
1979-07-06 12:31:15.780 ,4,1,16.,12.0,0.,12.0,0.,12.0,10.,12.0
1979-07-06 12:31:27.780 ,4,1,31.,12.0,0.,12.0,0.,12.0,9.,12.0
1979-07-06 12:31:39.780 ,4,0,13.,12.0,0.,12.0,0.,12.0,8.,12.0
1979-07-06 12:31:51.780 ,4,0,20.,12.0,0.,12.0,0.,12.0,5.,12.0
1979-07-06 12:32:03.780 ,3,1,11.,12.0,0.,12.0,0.,12.0,5.,12.0
1979-07-06 12:32:15.780 ,3,1,11.,12.0,0.,12.0,0.,12.0,4.,12.0
1979-07-06 12:32:27.780 ,3,0,8.,12.0,0.,12.0,0.,12.0,3.,12.0
1979-07-06 12:32:39.780 ,3,0,7.,12.0,0.,12.0,0.,12.0,3.,12.0
1979-07-06 12:32:51.780 ,2,1,3.,12.0,0.,12.0,0.,12.0,3.,12.0
1979-07-06 12:33:03.780 ,2,1,2.,12.0,0.,12.0,0.,12.0,1.,12.0
1979-07-06 12:33:15.780 ,2,0,3.,12.0,0.,12.0,0.,12.0,0.,12.0
1979-07-06 12:33:27.780 ,2,0,3.,12.0,0.,12.0,0.,12.0,1.,12.0
1979-07-06 12:33:39.780 ,1,1,3.,12.0,0.,12.0,0.,12.0,0.,12.0
1979-07-06 12:33:51.780 ,1,1,1.,12.0,0.,12.0,0.,12.0,0.,12.0
1979-07-06 12:34:03.780 ,1,0,1.,12.0,0.,12.0,0.,12.0,2.,12.0
1979-07-06 12:34:15.780 ,1,0,2.,12.0,0.,12.0,0.,12.0,1.,12.0
1979-07-06 12:34:27.780 ,0,1,2.,12.0,0.,12.0,0.,12.0,1.,12.0
1979-07-06 12:34:39.780 ,0,1,1.,12.0,0.,12.0,0.,12.0,0.,12.0
1979-07-06 12:34:51.780 ,0,0,2.,12.0,0.,12.0,0.,12.0,0.,12.0
1979-07-06 12:35:03.780 ,0,0,3.,12.0,0.,12.0,0.,12.0,1.,12.0
1979-07-06 12:35:15.770 ,0,1,0.,12.0,0.,12.0,0.,12.0,0.,12.0
1979-07-06 12:35:27.770 ,0,1,4.,12.0,0.,12.0,0.,12.0,0.,12.0
1979-07-06 12:35:39.770 ,0,0,3.,12.0,0.,12.0,0.,12.0,1.,12.0
1979-07-06 12:35:51.770 ,0,0,3.,12.0,0.,12.0,0.,12.0,0.,12.0
1979-07-06 12:36:03.770 ,1,1,3.,12.0,0.,12.0,0.,12.0,0.,12.0
1979-07-06 12:36:15.770 ,1,1,0.,12.0,0.,12.0,0.,12.0,0.,12.0
1979-07-06 12:36:27.770 ,1,0,4.,12.0,0.,12.0,0.,12.0,0.,12.0
1979-07-06 12:36:39.770 ,1,0,1.,12.0,0.,12.0,0.,12.0,2.,12.0
1979-07-06 12:36:51.770 ,2,1,4.,12.0,0.,12.0,0.,12.0,0.,12.0
1979-07-06 12:37:03.770 ,2,1,2.,12.0,0.,12.0,0.,12.0,1.,12.0
1979-07-06 12:37:15.770 ,2,0,2.,12.0,0.,12.0,0.,12.0,0.,12.0
1979-07-06 12:37:27.770 ,2,0,5.,12.0,0.,12.0,0.,12.0,1.,12.0
1979-07-06 12:37:39.770 ,3,1,1.,12.0,0.,12.0,0.,12.0,0.,12.0
1979-07-06 12:37:51.770 ,3,1,2.,12.0,0.,12.0,0.,12.0,2.,12.0
1979-07-06 12:38:03.770 ,3,0,3.,12.0,0.,12.0,0.,12.0,2.,12.0
1979-07-06 12:38:15.770 ,3,0,1.,12.0,0.,12.0,0.,12.0,2.,12.0
1979-07-06 12:38:27.770 ,4,1,3.,12.0,0.,12.0,0.,12.0,2.,12.0
1979-07-06 12:38:39.770 ,4,1,6.,12.0,0.,12.0,0.,12.0,5.,12.0
1979-07-06 12:38:51.770 ,4,0,10.,12.0,0.,12.0,0.,12.0,1.,12.0
1979-07-06 12:39:03.770 ,4,0,8.,12.0,0.,12.0,0.,12.0,4.,12.0
1979-07-06 12:39:15.770 ,5,1,4.,12.0,0.,12.0,0.,12.0,4.,12.0
1979-07-06 12:39:27.770 ,5,1,9.,12.0,0.,12.0,0.,12.0,1.,12.0
1979-07-06 12:39:39.770 ,5,0,11.,12.0,0.,12.0,0.,12.0,8.,12.0
1979-07-06 12:39:51.770 ,5,0,7.,12.0,0.,12.0,0.,12.0,4.,12.0
1979-07-06 12:40:03.770 ,6,1,12.,12.0,0.,12.0,0.,12.0,11.,12.0
1979-07-06 12:40:15.770 ,6,1,6.,12.0,0.,12.0,0.,12.0,4.,12.0
1979-07-06 12:40:27.770 ,6,0,10.,12.0,0.,12.0,0.,12.0,6.,12.0
1979-07-06 12:40:39.770 ,6,0,4.,12.0,0.,12.0,0.,12.0,5.,12.0
1979-07-06 12:40:51.770 ,7,1,5.,12.0,0.,12.0,0.,12.0,7.,12.0
1979-07-06 12:41:03.770 ,7,1,1.,12.0,0.,12.0,0.,12.0,2.,12.0
1979-07-06 12:41:15.770 ,7,0,0.,12.0,0.,12.0,0.,12.0,0.,12.0
1979-07-06 12:41:27.770 ,7,0,0.,12.0,0.,12.0,0.,12.0,0.,12.0
1979-07-06 12:41:39.770 ,7,1,0.,12.0,0.,12.0,0.,12.0,0.,12.0
1979-07-06 12:41:51.770 ,7,1,0.,12.0,0.,12.0,0.,12.0,0.,12.0
1979-07-06 12:42:03.770 ,7,0,0.,12.0,0.,12.0,0.,12.0,0.,12.0
1979-07-06 12:42:15.770 ,7,0,0.,12.0,0.,12.0,0.,12.0,0.,12.0
1979-07-06 12:42:27.770 ,6,1,0.,12.0,0.,12.0,0.,12.0,0.,12.0
1979-07-06 12:42:39.770 ,6,1,5.,12.0,0.,12.0,0.,12.0,2.,12.0
1979-07-06 12:42:51.770 ,6,0,5.,12.0,0.,12.0,0.,12.0,3.,12.0
1979-07-06 12:43:03.770 ,6,0,3.,12.0,0.,12.0,0.,12.0,6.,12.0
1979-07-06 12:43:15.770 ,5,1,8.,12.0,0.,12.0,0.,12.0,1.,12.0
1979-07-06 12:43:27.770 ,5,1,6.,12.0,0.,12.0,0.,12.0,6.,12.0
1979-07-06 12:43:39.770 ,5,0,11.,12.0,0.,12.0,0.,12.0,2.,12.0
1979-07-06 12:43:51.770 ,5,0,13.,12.0,0.,12.0,0.,12.0,3.,12.0
1979-07-06 12:44:03.770 ,4,1,8.,12.0,0.,12.0,0.,12.0,10.,12.0
1979-07-06 12:44:15.770 ,4,1,6.,12.0,0.,12.0,0.,12.0,2.,12.0
1979-07-06 12:44:27.770 ,4,0,6.,12.0,0.,12.0,0.,12.0,5.,12.0
1979-07-06 12:44:39.770 ,4,0,4.,12.0,0.,12.0,0.,12.0,3.,12.0
1979-07-06 12:44:51.770 ,3,1,8.,12.0,0.,12.0,0.,12.0,8.,12.0
1979-07-06 12:45:03.770 ,3,1,6.,12.0,0.,12.0,0.,12.0,3.,12.0
1979-07-06 12:45:15.770 ,3,0,5.,12.0,0.,12.0,0.,12.0,1.,12.0
1979-07-06 12:45:27.770 ,3,0,4.,12.0,0.,12.0,0.,12.0,2.,12.0
1979-07-06 12:45:39.770 ,2,1,4.,12.0,0.,12.0,0.,12.0,2.,12.0
1979-07-06 12:45:51.770 ,2,1,0.,12.0,0.,12.0,0.,12.0,2.,12.0
1979-07-06 12:46:03.770 ,2,0,4.,12.0,0.,12.0,0.,12.0,1.,12.0
1979-07-06 12:46:15.770 ,2,0,2.,12.0,0.,12.0,0.,12.0,0.,12.0
1979-07-06 12:46:27.770 ,1,1,3.,12.0,0.,12.0,0.,12.0,2.,12.0
1979-07-06 12:46:39.770 ,1,1,0.,12.0,0.,12.0,0.,12.0,2.,12.0
1979-07-06 12:46:51.770 ,1,0,2.,12.0,0.,12.0,0.,12.0,1.,12.0
1979-07-06 12:47:03.770 ,1,0,0.,12.0,0.,12.0,0.,12.0,0.,12.0
1979-07-06 12:47:15.770 ,0,1,2.,12.0,0.,12.0,0.,12.0,2.,12.0
1979-07-06 12:47:27.770 ,0,1,6.,12.0,0.,12.0,0.,12.0,0.,12.0
1979-07-06 12:47:39.770 ,0,0,1.,12.0,0.,12.0,0.,12.0,0.,12.0
1979-07-06 12:47:51.770 ,0,0,1.,12.0,0.,12.0,0.,12.0,0.,12.0
1979-07-06 12:48:03.770 ,0,1,1.,12.0,0.,12.0,0.,12.0,0.,12.0
1979-07-06 12:48:15.770 ,0,1,3.,12.0,0.,12.0,0.,12.0,0.,12.0
1979-07-06 12:48:27.770 ,0,0,0.,12.0,0.,12.0,0.,12.0,0.,12.0
1979-07-06 12:48:39.770 ,0,0,0.,12.0,0.,12.0,0.,12.0,0.,12.0
1979-07-06 12:48:51.770 ,1,1,1.,12.0,0.,12.0,0.,12.0,0.,12.0
1979-07-06 12:49:03.770 ,1,1,3.,12.0,0.,12.0,0.,12.0,1.,12.0
1979-07-06 12:49:15.770 ,1,0,2.,12.0,0.,12.0,0.,12.0,0.,12.0
1979-07-06 12:49:27.770 ,1,0,1.,12.0,0.,12.0,0.,12.0,1.,12.0
1979-07-06 12:49:39.770 ,2,1,2.,12.0,0.,12.0,0.,12.0,1.,12.0
1979-07-06 12:49:51.770 ,2,1,1.,12.0,0.,12.0,0.,12.0,1.,12.0
1979-07-06 12:50:03.770 ,2,0,1.,12.0,0.,12.0,0.,12.0,0.,12.0
1979-07-06 12:50:15.770 ,2,0,3.,12.0,0.,12.0,0.,12.0,1.,12.0
1979-07-06 12:50:27.770 ,3,1,2.,12.0,0.,12.0,0.,12.0,0.,12.0
1979-07-06 12:50:39.770 ,3,1,7.,12.0,0.,12.0,0.,12.0,0.,12.0
1979-07-06 12:50:51.770 ,3,0,3.,12.0,0.,12.0,0.,12.0,2.,12.0
1979-07-06 12:51:03.770 ,3,0,3.,12.0,0.,12.0,0.,12.0,3.,12.0
1979-07-06 12:51:15.770 ,4,1,4.,12.0,0.,12.0,0.,12.0,1.,12.0
1979-07-06 12:51:27.770 ,4,1,7.,12.0,0.,12.0,0.,12.0,6.,12.0
1979-07-06 12:51:39.770 ,4,0,5.,12.0,0.,12.0,0.,12.0,1.,12.0
1979-07-06 12:51:51.770 ,4,0,8.,12.0,0.,12.0,0.,12.0,5.,12.0
1979-07-06 12:52:03.770 ,5,1,4.,12.0,0.,12.0,0.,12.0,2.,12.0
1979-07-06 12:52:15.770 ,5,1,9.,12.0,0.,12.0,0.,12.0,7.,12.0
1979-07-06 12:52:27.770 ,5,0,14.,12.0,0.,12.0,0.,12.0,2.,12.0
1979-07-06 12:52:39.770 ,5,0,7.,12.0,0.,12.0,0.,12.0,6.,12.0
1979-07-06 12:52:51.770 ,6,1,6.,12.0,0.,12.0,0.,12.0,9.,12.0
1979-07-06 12:53:03.770 ,6,1,9.,12.0,0.,12.0,0.,12.0,5.,12.0
1979-07-06 12:53:15.770 ,6,0,5.,12.0,0.,12.0,0.,12.0,5.,12.0
1979-07-06 12:53:27.770 ,6,0,6.,12.0,0.,12.0,0.,12.0,3.,12.0
1979-07-06 12:53:39.770 ,7,1,4.,12.0,0.,12.0,0.,12.0,5.,12.0
1979-07-06 12:53:51.770 ,7,1,0.,12.0,0.,12.0,0.,12.0,0.,12.0
1979-07-06 12:54:03.770 ,7,0,0.,12.0,0.,12.0,0.,12.0,0.,12.0
1979-07-06 12:54:15.770 ,7,0,0.,12.0,0.,12.0,0.,12.0,0.,12.0
1979-07-06 12:54:27.770 ,7,1,0.,12.0,0.,12.0,0.,12.0,0.,12.0
1979-07-06 12:54:39.770 ,7,1,0.,12.0,0.,12.0,0.,12.0,0.,12.0
1979-07-06 12:54:51.770 ,7,0,0.,12.0,0.,12.0,0.,12.0,0.,12.0
1979-07-06 12:55:03.770 ,7,0,0.,12.0,0.,12.0,0.,12.0,0.,12.0
1979-07-06 12:55:15.770 ,6,1,0.,12.0,0.,12.0,0.,12.0,0.,12.0
1979-07-06 12:55:27.770 ,6,1,3.,12.0,0.,12.0,0.,12.0,3.,12.0
1979-07-06 12:55:39.770 ,6,0,6.,12.0,0.,12.0,0.,12.0,9.,12.0
1979-07-06 12:55:51.770 ,6,0,5.,12.0,0.,12.0,0.,12.0,2.,12.0
1979-07-06 12:56:03.770 ,5,1,7.,12.0,0.,12.0,0.,12.0,9.,12.0
1979-07-06 12:56:15.770 ,5,1,7.,12.0,0.,12.0,0.,12.0,4.,12.0
1979-07-06 12:56:27.770 ,5,0,20.,12.0,0.,12.0,0.,12.0,4.,12.0
1979-07-06 12:56:39.770 ,5,0,11.,12.0,0.,12.0,0.,12.0,6.,12.0
1979-07-06 12:56:51.770 ,4,1,15.,12.0,0.,12.0,0.,12.0,5.,12.0
1979-07-06 12:57:03.770 ,4,1,8.,12.0,0.,12.0,0.,12.0,1.,12.0
1979-07-06 12:57:15.770 ,4,0,10.,12.0,0.,12.0,0.,12.0,6.,12.0
1979-07-06 12:57:27.770 ,4,0,6.,12.0,0.,12.0,0.,12.0,4.,12.0
1979-07-06 12:57:39.770 ,3,1,9.,12.0,0.,12.0,0.,12.0,3.,12.0
1979-07-06 12:57:51.770 ,3,1,4.,12.0,0.,12.0,0.,12.0,1.,12.0
1979-07-06 12:58:03.770 ,3,0,4.,12.0,0.,12.0,0.,12.0,1.,12.0
1979-07-06 12:58:15.770 ,3,0,6.,12.0,0.,12.0,0.,12.0,2.,12.0
1979-07-06 12:58:27.770 ,2,1,2.,12.0,0.,12.0,0.,12.0,0.,12.0
1979-07-06 12:58:39.770 ,2,1,1.,12.0,0.,12.0,0.,12.0,2.,12.0
1979-07-06 12:58:51.770 ,2,0,3.,12.0,0.,12.0,0.,12.0,0.,12.0
1979-07-06 12:59:03.770 ,2,0,0.,12.0,0.,12.0,0.,12.0,0.,12.0
1979-07-06 12:59:15.770 ,1,1,3.,12.0,0.,12.0,0.,12.0,0.,12.0
1979-07-06 12:59:27.770 ,1,1,1.,12.0,0.,12.0,0.,12.0,0.,12.0
1979-07-06 12:59:39.770 ,1,0,2.,12.0,0.,12.0,0.,12.0,1.,12.0
1979-07-06 12:59:51.770 ,1,0,3.,12.0,0.,12.0,0.,12.0,1.,12.0
1979-07-06 13:00:03.770 ,0,1,3.,12.0,0.,12.0,0.,12.0,2.,12.0
1979-07-06 13:00:15.770 ,0,1,1.,12.0,0.,12.0,0.,12.0,1.,12.0
1979-07-06 13:00:27.770 ,0,0,2.,12.0,0.,12.0,0.,12.0,1.,12.0
1979-07-06 13:00:39.770 ,0,0,0.,12.0,0.,12.0,0.,12.0,1.,12.0
1979-07-06 13:00:51.770 ,0,1,2.,12.0,0.,12.0,0.,12.0,1.,12.0
1979-07-06 13:01:03.770 ,0,1,1.,12.0,0.,12.0,0.,12.0,0.,12.0
1979-07-06 13:01:15.770 ,0,0,0.,12.0,0.,12.0,0.,12.0,3.,12.0
1979-07-06 13:01:27.770 ,0,0,2.,12.0,0.,12.0,0.,12.0,2.,12.0
1979-07-06 13:01:39.770 ,1,1,1.,12.0,0.,12.0,0.,12.0,0.,12.0
1979-07-06 13:01:51.770 ,1,1,3.,12.0,0.,12.0,0.,12.0,0.,12.0
1979-07-06 13:02:03.770 ,1,0,2.,12.0,0.,12.0,0.,12.0,1.,12.0
1979-07-06 13:02:15.770 ,1,0,4.,12.0,0.,12.0,0.,12.0,0.,12.0
1979-07-06 13:02:27.770 ,2,1,0.,12.0,0.,12.0,0.,12.0,0.,12.0
1979-07-06 13:02:39.770 ,2,1,2.,12.0,0.,12.0,0.,12.0,1.,12.0
1979-07-06 13:02:51.770 ,2,0,0.,12.0,0.,12.0,0.,12.0,0.,12.0
1979-07-06 13:03:03.770 ,2,0,2.,12.0,0.,12.0,0.,12.0,0.,12.0
1979-07-06 13:03:15.770 ,3,1,0.,12.0,0.,12.0,0.,12.0,1.,12.0
1979-07-06 13:03:27.770 ,3,1,3.,12.0,0.,12.0,0.,12.0,0.,12.0
1979-07-06 13:03:39.770 ,3,0,5.,12.0,0.,12.0,0.,12.0,1.,12.0
1979-07-06 13:03:51.770 ,3,0,6.,12.0,0.,12.0,0.,12.0,1.,12.0
1979-07-06 13:04:03.770 ,4,1,0.,12.0,0.,12.0,0.,12.0,1.,12.0
1979-07-06 13:04:15.770 ,4,1,7.,12.0,0.,12.0,0.,12.0,5.,12.0
1979-07-06 13:04:27.770 ,4,0,7.,12.0,0.,12.0,0.,12.0,6.,12.0
1979-07-06 13:04:39.770 ,4,0,11.,12.0,0.,12.0,0.,12.0,6.,12.0
1979-07-06 13:04:51.770 ,5,1,12.,12.0,0.,12.0,0.,12.0,4.,12.0
1979-07-06 13:05:03.770 ,5,1,15.,12.0,0.,12.0,0.,12.0,8.,12.0
1979-07-06 13:05:15.770 ,5,0,10.,12.0,0.,12.0,0.,12.0,7.,12.0
1979-07-06 13:05:27.770 ,5,0,11.,12.0,0.,12.0,0.,12.0,7.,12.0
1979-07-06 13:05:39.770 ,6,1,16.,12.0,0.,12.0,0.,12.0,12.,12.0
1979-07-06 13:05:51.770 ,6,1,7.,12.0,0.,12.0,0.,12.0,2.,12.0
1979-07-06 13:06:03.770 ,6,0,18.,12.0,0.,12.0,0.,12.0,6.,12.0
1979-07-06 13:06:15.770 ,6,0,9.,12.0,0.,12.0,0.,12.0,3.,12.0
1979-07-06 13:06:03.770 ,6,0,18.,12.0,0.,12.0,0.,12.0,6.,12.0
1979-07-06 13:06:15.770 ,6,0,9.,12.0,0.,12.0,0.,12.0,3.,12.0
1979-07-06 13:06:27.770 ,7,0,8.,12.0,0.,12.0,0.,12.0,6.,12.0
1979-07-06 13:06:39.770 ,7,0,1.,12.0,0.,12.0,0.,12.0,2.,12.0
1979-07-06 13:06:51.770 ,7,0,0.,12.0,0.,12.0,0.,12.0,0.,12.0
1979-07-06 13:07:03.770 ,7,0,0.,12.0,0.,12.0,0.,12.0,0.,12.0
1979-07-06 13:07:15.770 ,4,1,6.,12.0,0.,12.0,0.,12.0,1.,12.0
1979-07-06 13:07:27.770 ,4,1,12.,12.0,0.,12.0,0.,12.0,8.,12.0
1979-07-06 13:07:39.770 ,0,1,2.,12.0,0.,12.0,0.,12.0,1.,12.0
1979-07-06 13:07:51.770 ,0,1,1.,12.0,0.,12.0,0.,12.0,0.,12.0
1979-07-06 13:08:03.770 ,3,1,0.,12.0,0.,12.0,0.,12.0,2.,12.0
1979-07-06 13:08:15.770 ,3,1,3.,12.0,0.,12.0,0.,12.0,1.,12.0
1979-07-06 13:08:27.770 ,7,1,13.,12.0,0.,12.0,0.,12.0,6.,12.0
1979-07-06 13:08:39.770 ,7,1,9.,12.0,0.,12.0,0.,12.0,5.,12.0
1979-07-06 13:08:51.770 ,4,1,8.,12.0,0.,12.0,0.,12.0,1.,12.0
1979-07-06 13:09:03.770 ,4,1,20.,12.0,0.,12.0,0.,12.0,9.,12.0
1979-07-06 13:09:15.770 ,0,1,3.,12.0,0.,12.0,0.,12.0,2.,12.0
1979-07-06 13:09:27.770 ,0,1,2.,12.0,0.,12.0,0.,12.0,0.,12.0
1979-07-06 13:09:39.770 ,3,1,1.,12.0,0.,12.0,0.,12.0,1.,12.0
1979-07-06 13:09:51.770 ,3,1,2.,12.0,0.,12.0,0.,12.0,2.,12.0
1979-07-06 13:10:03.770 ,7,1,15.,12.0,0.,12.0,0.,12.0,12.,12.0
1979-07-06 13:10:15.770 ,7,1,9.,12.0,0.,12.0,0.,12.0,1.,12.0
1979-07-06 13:10:27.770 ,4,1,1.,12.0,0.,12.0,0.,12.0,0.,12.0
1979-07-06 13:10:39.770 ,4,1,13.,12.0,0.,12.0,0.,12.0,8.,12.0
1979-07-06 13:10:51.770 ,0,1,9.,12.0,0.,12.0,0.,12.0,0.,12.0
1979-07-06 13:11:03.770 ,0,1,0.,12.0,0.,12.0,0.,12.0,1.,12.0
1979-07-06 13:11:15.770 ,3,1,3.,12.0,0.,12.0,0.,12.0,0.,12.0
1979-07-06 13:11:27.770 ,3,1,1.,12.0,0.,12.0,0.,12.0,3.,12.0
1979-07-06 13:11:39.770 ,7,1,11.,12.0,0.,12.0,0.,12.0,6.,12.0
1979-07-06 13:11:51.770 ,7,1,9.,12.0,0.,12.0,0.,12.0,4.,12.0
1979-07-06 13:12:03.770 ,4,1,6.,12.0,0.,12.0,0.,12.0,0.,12.0
1979-07-06 13:12:15.770 ,4,1,20.,12.0,0.,12.0,0.,12.0,10.,12.0
1979-07-06 13:12:27.770 ,0,1,4.,12.0,0.,12.0,0.,12.0,2.,12.0
1979-07-06 13:12:39.770 ,0,1,0.,12.0,0.,12.0,0.,12.0,0.,12.0
1979-07-06 13:12:51.770 ,3,1,2.,12.0,0.,12.0,0.,12.0,0.,12.0
1979-07-06 13:13:03.770 ,3,1,3.,12.0,0.,12.0,0.,12.0,2.,12.0
1979-07-06 13:13:15.770 ,7,1,12.,12.0,0.,12.0,0.,12.0,10.,12.0
1979-07-06 13:13:27.770 ,7,1,11.,12.0,0.,12.0,0.,12.0,2.,12.0
1979-07-06 13:13:39.770 ,4,1,2.,12.0,0.,12.0,0.,12.0,2.,12.0
1979-07-06 13:13:51.770 ,4,1,20.,12.0,0.,12.0,0.,12.0,8.,12.0
1979-07-06 13:14:03.770 ,0,1,2.,12.0,0.,12.0,0.,12.0,2.,12.0
1979-07-06 13:14:15.770 ,0,1,2.,12.0,0.,12.0,0.,12.0,1.,12.0
1979-07-06 13:14:27.770 ,3,1,2.,12.0,0.,12.0,0.,12.0,2.,12.0
1979-07-06 13:14:39.770 ,3,1,5.,12.0,0.,12.0,0.,12.0,2.,12.0
1979-07-06 13:14:51.770 ,7,1,8.,12.0,0.,12.0,0.,12.0,2.,12.0
1979-07-06 13:15:03.770 ,7,1,12.,12.0,0.,12.0,0.,12.0,7.,12.0
1979-07-06 13:15:15.770 ,4,1,4.,12.0,0.,12.0,0.,12.0,3.,12.0
1979-07-06 13:15:27.770 ,4,1,13.,12.0,0.,12.0,0.,12.0,7.,12.0
1979-07-06 13:15:39.770 ,0,1,4.,12.0,0.,12.0,0.,12.0,0.,12.0
1979-07-06 13:15:51.770 ,0,1,1.,12.0,0.,12.0,0.,12.0,0.,12.0
1979-07-06 13:16:03.770 ,3,1,3.,12.0,0.,12.0,0.,12.0,0.,12.0
1979-07-06 13:16:15.770 ,3,1,1.,12.0,0.,12.0,0.,12.0,1.,12.0
1979-07-06 13:16:27.770 ,7,1,13.,12.0,0.,12.0,0.,12.0,6.,12.0
1979-07-06 13:16:39.770 ,7,1,11.,12.0,0.,12.0,0.,12.0,6.,12.0